Regional Weather Roundup
Issued by NWS

Home | Current Version | Previous Version | Graphics & Text | Print | Product List | Glossary On
Versions: 1 2 3 4 5 6 7 8 9 10 11 12 13 14 15 16 17 18 19 20 21 22 23 24 25 26 27 28 29 30 31 32 33 34 35 36 37 38 39 40 41 42 43 44 45 46 47 48 49 50
000
ASUS43 KLSX 180807
RWRMO

WEATHER SUMMARY FOR MISSOURI
NATIONAL WEATHER SERVICE SPRINGFIELD MO
200 AM CST THU DEC 18 2014

NOTE: "FAIR" INDICATES FEW OR NO CLOUDS BELOW 12,000 FEET WITH NO
       SIGNIFICANT WEATHER AND/OR OBSTRUCTIONS TO VISIBILITY.
       CURRENT SKY AND/OR WEATHER CONDITIONS ARE NOT AVAILABLE FOR
       CHILLICOTHE AND FARMINGTON.

MOZ001>031-035>038-043-044-053-054-180900-
...NORTHERN AND WESTERN MISSOURI...

CITY           SKY/WX    TMP DP  RH WIND       PRES   REMARKS
KANSAS CTY INT LGT SNOW  28  26  92 E6        30.23F VSB 1   WCI  22
KANSAS C DTWN  LGT SNOW  29  27  92 NE5       30.24F FOG     WCI  24
LEE`S SUMMIT   LGT SNOW  28  26  92 E8        30.23F FOG     WCI  20
ST JOSEPH      CLOUDY    29  24  82 E5        30.25S WCI  24
CHILLICOTHE      N/A     30  22  72 E3        30.27F
KIRKSVILLE     CLOUDY    26  21  81 E6        30.27F WCI  19

$$
MOZ066>068-077>081-088>096-101>105-180900-
...SOUTHWEST MISSOURI...

CITY           SKY/WX    TMP DP  RH WIND       PRES   REMARKS
SPRINGFIELD    CLOUDY    33  31  92 SE9       30.17F FOG     WCI  25
JOPLIN         CLOUDY    34  33  96 NE3       30.18S FOG

$$
MOZ032>034-039>042-045>050-055>058-069>072-180900-
...CENTRAL MISSOURI...

CITY           SKY/WX    TMP DP  RH WIND       PRES   REMARKS
COLUMBIA       CLOUDY    31  26  82 NE5       30.26S WCI  26
JEFFERSON CITY CLOUDY    33  26  75 NE5       30.28R WCI  29
ROLLA          LGT SNOW  31  28  89 E3        30.22S FOG
SEDALIA        FLURRIES  32  27  81 NE6       30.25F WCI  26
WHITEMAN AFB   LGT SNOW  29  28  93 E6        30.23F FOG     WCI  23
WARRENSBURG    LGT SNOW  30  28  93 NE3       30.24F
OSAGE BEACH    CLOUDY    30  28  93 NE5       30.24R WCI  25

$$
MOZ051-052-059>065-180900-
...EAST CENTRAL MISSOURI...

CITY           SKY/WX    TMP DP  RH WIND       PRES   REMARKS
ST LOUIS INTL  CLOUDY    31  23  72 E7        30.28F WCI  24
SPIRIT OF STL  CLOUDY   N/A N/A N/A E5        30.27F
ST CHARLES     CLOUDY    29  23  78 E8        30.28F WCI  21

$$
MOZ072>076-082>087-097>100-106>115-180900-
...SOUTH CENTRAL AND SOUTHEAST MISSOURI...

CITY           SKY/WX    TMP DP  RH WIND       PRES   REMARKS
CAPE GIRARDEAU CLOUDY    33  32  96 CALM      30.29S
FARMINGTON     CLOUDY    32  30  93 W6        30.25S WCI  26
POPLAR BLUFF   LGT RAIN  33  31  92 CALM      30.27R FOG
WEST PLAINS    CLOUDY    33  31  92 SE3       30.22S

$$



USA.gov is the U.S. government's official web portal to all federal, state and local government web resources and services.